Date String (YYYY-MM-DD hh:mm:ss) UTC,Instrument flags,Ambient pressure (hPa),Sample flow (lpm),Bypass flow (lpm),Sample temperature (°C),Ambient temperature (°C),ASC tube jacket temperature (°C),LED temperature (°C),Box temperature (°C),Sample RH (%),Span deviation,Mass concentration (μg/m³),Mass concentration (μg/m³),Mass concentration (μg/m³)
DateTimeUTC,F1_M11,P_M11,Q1_M11,Q2_M11,T1_M11,T2_M11,T3_M11,T4_M11,T5_M11,U1_M11,ZSPAN_M11,X0_M11,X2_M11,X1_M11
2022-06-03 05:00:00,,0826.9,5.01,0.00,28.7,27.7,00.0,37.8,30.6,25.3,0000.0,0011.11,0007.39,0006.85
2022-06-03 05:01:00,,0826.9,5.01,0.00,28.8,27.7,00.0,37.8,30.6,25.6,0000.0,0011.22,0007.50,0006.96
2022-06-03 05:02:00,,0827.0,5.00,0.00,28.8,27.8,00.0,37.8,30.7,26.0,0000.0,0011.26,0007.60,0007.06
2022-06-03 05:03:00,,0826.9,4.99,0.00,28.8,27.8,00.0,37.8,30.7,26.4,0000.0,0011.32,0007.66,0007.13
2022-06-03 05:04:00,,0826.9,5.00,0.00,28.9,27.9,00.0,37.8,30.7,26.4,-000.7,0011.53,0007.70,0007.18
2022-06-03 05:05:00,,0826.9,5.00,0.00,28.9,27.9,00.0,37.8,30.7,26.2,-001.4,0011.62,0007.71,0007.19
2022-06-03 05:06:00,,0826.9,5.00,0.00,28.9,27.9,00.0,37.8,30.7,26.0,-001.4,0011.52,0007.70,0007.17
2022-06-03 05:07:00,,0826.9,4.99,0.00,28.9,28.0,00.0,37.8,30.8,25.7,-001.2,0011.69,0007.73,0007.16
2022-06-03 05:08:00,,0826.9,5.00,0.00,28.9,28.0,00.0,37.8,30.8,25.3,-001.3,0013.06,0007.87,0007.17
2022-06-03 05:09:00,,0826.9,4.99,0.00,28.9,28.0,00.0,37.8,30.8,25.2,-001.5,0014.25,0007.93,0007.16
2022-06-03 05:10:00,,0826.9,5.01,0.00,29.0,28.0,00.0,37.9,30.8,24.9,-002.0,0014.71,0007.98,0007.13
2022-06-03 05:11:00,,0826.9,5.00,0.00,29.0,28.1,00.0,37.9,30.8,24.7,-002.4,0015.24,0007.99,0007.08
2022-06-03 05:12:00,,0827.0,5.00,0.00,29.0,28.1,00.0,37.9,30.9,24.6,-002.2,0015.54,0008.02,0007.03
2022-06-03 05:13:00,,0826.9,5.01,0.00,29.0,28.1,00.0,37.9,30.9,24.6,-002.4,0015.67,0008.05,0006.99
2022-06-03 05:14:00,,0826.9,4.99,0.00,29.0,28.1,00.0,37.9,30.9,24.5,-002.1,0016.82,0008.03,0006.94
2022-06-03 05:15:00,,0826.9,5.00,0.00,29.0,28.1,00.0,37.9,30.9,24.4,-001.5,0018.06,0008.12,0006.92
2022-06-03 05:16:00,,0826.9,4.99,0.00,29.1,28.1,00.0,37.9,30.9,24.3,-001.2,0018.39,0008.19,0006.92
2022-06-03 05:17:00,,0826.9,5.00,0.00,29.1,28.2,00.0,37.9,31.0,24.2,-001.1,0019.42,0008.24,0006.94
2022-06-03 05:18:00,,0826.9,5.00,0.00,29.1,28.2,00.0,38.0,31.0,24.1,-001.1,0019.62,0008.25,0006.96
2022-06-03 05:19:00,,0827.0,5.00,0.00,29.1,28.2,00.0,38.0,31.0,24.1,-000.6,0019.04,0008.18,0006.98
2022-06-03 05:20:00,,0827.0,5.00,0.00,29.1,28.2,00.0,38.0,31.0,24.0,0000.0,0019.37,0008.18,0006.99
2022-06-03 05:21:00,,0827.0,5.00,0.00,29.1,28.2,00.0,38.0,31.0,24.0,0000.3,0019.55,0008.17,0006.99
2022-06-03 05:22:00,,0827.0,5.00,0.00,29.1,28.2,00.0,38.0,31.0,24.0,0000.3,0019.80,0008.18,0007.00
2022-06-03 05:23:00,,0827.0,5.01,0.00,29.2,28.3,00.0,38.0,31.0,24.0,0000.0,0019.77,0008.12,0007.00
2022-06-03 05:24:00,,0827.0,5.01,0.00,29.2,28.3,00.0,38.0,31.0,24.0,0000.0,0019.89,0008.07,0007.00
2022-06-03 05:25:00,,0826.9,4.99,0.00,29.2,28.3,00.0,38.0,31.1,24.0,-000.2,0019.89,0008.08,0007.00
2022-06-03 05:26:00,,0826.9,4.99,0.00,29.2,28.3,00.0,38.0,31.1,23.9,-000.6,0018.64,0008.00,0006.98
2022-06-03 05:27:00,,0826.8,5.00,0.00,29.2,28.3,00.0,38.1,31.1,23.9,-000.3,0018.60,0007.91,0006.95
2022-06-03 05:28:00,,0826.8,5.01,0.00,29.2,28.3,00.0,38.1,31.1,23.9,-000.2,0017.85,0007.84,0006.92
2022-06-03 05:29:00,,0826.9,5.00,0.00,29.2,28.3,00.0,38.1,31.1,23.8,-000.0,0018.01,0007.78,0006.88
2022-06-03 05:30:00,,0826.8,5.00,0.00,29.3,28.3,00.0,38.1,31.1,23.8,0000.0,0017.32,0007.67,0006.82
2022-06-03 05:31:00,,0826.9,5.00,0.00,29.3,28.3,00.0,38.1,31.1,23.8,0000.0,0016.15,0007.61,0006.77
2022-06-03 05:32:00,,0826.8,5.00,0.00,29.3,28.3,00.0,38.1,31.1,23.7,0000.0,0015.77,0007.54,0006.73
2022-06-03 05:33:00,,0826.8,5.01,0.00,29.3,28.3,00.0,38.1,31.2,23.7,0000.0,0015.25,0007.43,0006.68
2022-06-03 05:34:00,,0826.8,5.00,0.00,29.3,28.3,00.0,38.1,31.2,23.6,0000.0,0015.36,0007.40,0006.63
2022-06-03 05:35:00,,0826.8,4.99,0.00,29.3,28.3,00.0,38.1,31.2,23.6,0000.0,0015.83,0007.34,0006.58
2022-06-03 05:36:00,,0826.8,5.00,0.00,29.3,28.3,00.0,38.2,31.2,23.6,0000.0,0014.89,0007.30,0006.54
2022-06-03 05:37:00,,0826.7,5.01,0.00,29.3,28.3,00.0,38.2,31.2,23.6,0000.0,0014.77,0007.26,0006.50
2022-06-03 05:38:00,,0826.7,5.01,0.00,29.3,28.3,00.0,38.2,31.2,23.6,0000.0,0014.54,0007.20,0006.47
2022-06-03 05:39:00,,0826.7,4.99,0.00,29.3,28.3,00.0,38.2,31.2,23.6,0000.0,0014.29,0007.19,0006.45
2022-06-03 05:40:00,,0826.7,5.01,0.00,29.3,28.3,00.0,38.2,31.2,23.6,0000.0,0013.80,0007.17,0006.43
2022-06-03 05:41:00,,0826.7,5.00,0.00,29.4,28.3,00.0,38.2,31.2,23.6,0000.0,0013.64,0007.18,0006.44
2022-06-03 05:42:00,,0826.7,4.99,0.00,29.4,28.3,00.0,38.2,31.2,23.6,0000.0,0013.59,0007.15,0006.43
2022-06-03 05:43:00,,0826.7,5.01,0.00,29.4,28.3,00.0,38.2,31.2,23.6,0000.0,0013.65,0007.16,0006.43
2022-06-03 05:44:00,,0826.7,5.00,0.00,29.4,28.3,00.0,38.2,31.2,23.6,0000.0,0013.19,0007.16,0006.42
2022-06-03 05:45:00,,0826.7,5.00,0.00,29.4,28.3,00.0,38.2,31.2,23.6,0000.0,0012.99,0007.12,0006.42
2022-06-03 05:46:00,,0826.7,5.00,0.00,29.4,28.3,00.0,38.2,31.2,23.5,0000.0,0012.49,0007.12,0006.42
2022-06-03 05:47:00,,0826.7,5.01,0.00,29.4,28.3,00.0,38.2,31.2,23.5,0000.0,0012.59,0007.11,0006.43
2022-06-03 05:48:00,,0826.7,5.00,0.00,29.4,28.3,00.0,38.2,31.2,23.5,0000.0,0012.42,0007.08,0006.43
2022-06-03 05:49:00,,0826.7,5.01,0.00,29.4,28.3,00.0,38.3,31.2,23.5,0000.0,0012.20,0007.10,0006.42
2022-06-03 05:50:00,,0826.7,4.99,0.00,29.4,28.3,00.0,38.3,31.2,23.5,0000.0,0012.39,0007.10,0006.42
2022-06-03 05:51:00,,0826.7,5.00,0.00,29.4,28.3,00.0,38.3,31.2,23.5,0000.0,0012.47,0007.09,0006.40
2022-06-03 05:52:00,,0826.7,5.02,0.00,29.4,28.3,00.0,38.3,31.3,23.5,0000.0,0012.51,0007.08,0006.37
2022-06-03 05:53:00,,0826.7,5.00,0.00,29.4,28.3,00.0,38.3,31.3,23.5,0000.0,0012.85,0007.06,0006.34
2022-06-03 05:54:00,,0826.6,5.00,0.00,29.4,28.3,00.0,38.3,31.3,23.5,0000.0,0012.28,0007.02,0006.31
2022-06-03 05:55:00,,0826.6,4.99,0.00,29.4,28.3,00.0,38.3,31.3,23.5,0000.0,0012.16,0006.97,0006.29
2022-06-03 05:56:00,,0826.6,5.01,0.00,29.4,28.3,00.0,38.3,31.3,23.4,0000.0,0012.09,0006.97,0006.26
2022-06-03 05:57:00,,0826.6,5.00,0.00,29.4,28.3,00.0,38.3,31.3,23.4,0000.0,0012.02,0006.96,0006.23
2022-06-03 05:58:00,,0826.6,5.00,0.00,29.4,28.3,00.0,38.3,31.3,23.4,0000.0,0012.12,0006.92,0006.20
2022-06-03 05:59:00,,0826.6,5.01,0.00,29.4,28.3,00.0,38.3,31.3,23.4,0000.0,0012.04,0006.87,0006.17
